Regional Weather Roundup
Issued by NWS

Home | Current Version | Previous Version | Graphics & Text | Print | Product List | Glossary On
Versions: 1 2 3 4 5 6 7 8 9 10 11 12 13 14 15 16 17 18 19 20 21 22 23 24 25 26 27 28 29 30 31 32 33 34 35 36 37 38 39 40 41 42 43 44 45 46 47 48 49 50
000
ASUS43 KMKX 230100
RWRWI

WISCONSIN REGIONAL WEATHER ROUNDUP
NATIONAL WEATHER SERVICE MILWAUKEE/SULLIVAN WI
800 PM CDT MON MAY 22 2017

NOTE: "FAIR" INDICATES FEW OR NO CLOUDS BELOW 12,000 FEET WITH NO
SIGNIFICANT WEATHER AND/OR OBSTRUCTIONS TO VISIBILITY.

WIZ001-002-006>008-014>016-023>028-230200-
NORTHWEST WISCONSIN

CITY           SKY/WX    TMP DP  RH WIND       PRES   REMARKS
SUPERIOR ARPT  NOT AVBL
ASHLAND        CLOUDY    52  45  77 S6        29.82S
HAYWARD        CLOUDY    55  41  59 CALM      29.83R
SIREN          CLOUDY    55  43  62 CALM      29.84R
CUMBERLAND     CLOUDY    54  43  66 N6        29.83R
RICE LAKE      PTCLDY    57  43  59 N3        29.84S
CHETEK         MOCLDY    57  44  63 N3        29.82S
LADYSMITH      MOCLDY    56  45  65 CALM      29.85S
EAU CLAIRE     NOT AVBL
MENOMONIE      MOCLDY    60  44  55 NW7       29.81S
NEW RICHMOND   PTCLDY    59  41  50 NW5       29.82S
OSCEOLA        CLOUDY    59  43  55 NW5       29.84S
$$

WIZ003>005-009-010-017-018-230200-
NORTH CENTRAL WISCONSIN

CITY           SKY/WX    TMP DP  RH WIND       PRES   REMARKS
MANITOWISH WTR CLOUDY    51  44  77 W7        29.83S
ARBOR VITAE    CLOUDY    53  43  70 CALM      29.83R
WOODRUFF       CLOUDY    53  43  70 CALM      29.83R
RHINELANDER    MOCLDY    55  41  59 NW3       29.84R
EAGLE RIVER    CLOUDY    52  40  64 NW5       29.83S
LAND O LAKES   CLOUDY    51  42  71 W5        29.85R
PHILLIPS       CLOUDY    53  43  69 CALM      29.83R
TOMAHAWK       CLEAR     55  40  56 NW6       29.84R
MEDFORD        MOCLDY    56  41  57 NW10      29.82S
MERRILL        CLEAR     58  41  54 NW7       29.83S
$$

WIZ029-030-035-036-043>047-230200-
CENTRAL WISCONSIN

CITY           SKY/WX    TMP DP  RH WIND       PRES   REMARKS
WAUSAU         MOCLDY    60  42  51 NW6       29.80S
MOSINEE        NOT AVBL
MARSHFIELD     PTCLDY    60  44  55 N7        29.81R
STEVENS POINT  PTCLDY    61  42  49 CALM      29.81S
WAUPACA        CLOUDY    65  48  55 SW5       29.81S
WAUTOMA        PTCLDY    64  50  60 SW7       29.81S
WISC RAPIDS    PTCLDY    63  44  50 NW5       29.82R
CAMP DOUGLAS   NOT AVBL
$$

WIZ011>013-019>022-031-037>040-048>050-230200-
NORTHEAST WISCONSIN

CITY           SKY/WX    TMP DP  RH WIND       PRES   REMARKS
ANTIGO         PTCLDY    56  44  64 NW5       29.83R
SHAWANO        CLOUDY    63  45  50 NW6       29.82R
OCONTO         CLOUDY    57  46  65 NE9       29.81R
STURGEON BAY   LGT RAIN  53  48  83 E5        29.84R
GREEN BAY      CLOUDY    64  51  62 SW8G17    29.81R
MANITOWOC      NOT AVBL
APPLETON       PTCLDY    63  45  51 SW12      29.80R
CLINTONVILLE   CLOUDY    64  41  42 NW6       29.81R
OSHKOSH        CLOUDY    62  51  67 S8        29.82R
$$

WIZ032>034-041-042-053>061-230200-
SOUTHWEST WISCONSIN

CITY           SKY/WX    TMP DP  RH WIND       PRES   REMARKS
LA CROSSE      CLEAR     65  51  60 CALM      29.79S
SPARTA         PTCLDY    66  49  54 CALM      29.81R
VIROQUA        PTCLDY    64  50  59 CALM      29.81S
BOSCOBEL       CLOUDY    64  56  75 CALM      29.82R
PRAIRIE DU CHI CLOUDY    63  55  76 S5        29.81R
PLATTEVILLE    MOCLDY    63  61  91 S9        29.83S
$$

WIZ056-057-062-063-064-067-068-230200-
SOUTH CENTRAL WISCONSIN

CITY           SKY/WX    TMP DP  RH WIND       PRES   REMARKS
REEDSBURG      CLOUDY    63  52  68 S5        29.81S
BARABOO/DELLS  CLOUDY    62  51  66 S5        29.82S
LONE ROCK      NOT AVBL
MINERAL POINT  CLOUDY    63  59  88 S7        29.83R
MADISON        CLOUDY    63  54  72 S8        29.83S
MIDDLETON      CLOUDY    65  54  66 S6        29.84S
WATERTOWN      CLOUDY    62  54  73 W5        29.84S
MONROE         DRIZZLE   59  55  88 SW8       29.85S
JANESVILLE     DRIZZLE   63  57  82 SW15      29.86S
$$

WIZ051-052-058>065-066-070>072-230200-
SOUTHEAST WISCONSIN

CITY           SKY/WX    TMP DP  RH WIND       PRES   REMARKS
MILWAUKEE      MOCLDY    61  52  72 CALM      29.85F
WAUKESHA       MOCLDY    61  52  72 SW6       29.86F
MILWAUKEE/TIMM LGT RAIN  63  50  63 SW5       29.86S
RACINE         CLOUDY    67  51  56 SW12G21   29.87S
KENOSHA        CLOUDY    66  52  60 SW16G26   29.86S
FOND DU LAC    CLOUDY    62  50  64 S8        29.83S
SHEBOYGAN      CLOUDY    62  51  67 SW10      29.84S
WEST BEND      CLOUDY    59  52  77 CALM      29.85S
JUNEAU         CLOUDY    61  53  74 CALM      29.85F
$$

LSZ147-162-230200-
LAKE SUPERIOR

STATION/POSITION TIME  TEMP    WIND        PRES    WAVE
                       AIR SEA DIR/SP/G            HT/PER
                 (UTC) (F)     (DEG/KT/KT) (MB)    (FT/S)
W MID LAKE BUOY  2350   41 37  230/  8/ 10 1009.5R   2/ 4
DEVILS ISLAND    0000   49     220/ 11/ 13 1009.4S
SAXON HARBOR     0040   55     210/  3/  6 1009.8R
$$

LMZ867-665-643>646-230200-
LAKE MICHIGAN

STATION/POSITION TIME  TEMP    WIND        PRES    WAVE
                       AIR SEA DIR/SP/G            HT/PER
                 (UTC) (F)     (DEG/KT/KT) (MB)    (FT/S)
CHAMBERS ISLAND  0040   52      40/  4/  8 1009.8R
N MID LAKE BUOY  2250   45 39  180/ 17/ 19 1009.9F   4/ 5
NORTHPORT PIER   0040   50     320/  4/  7 1010.2R
KEWAUNEE LAKESHO 0030          230/  7/ 15 1008.9R
SHEBOYGAN LAKESH 0000   56     170/ 13/ 14 1010.4R
PORT WASHINGTON  0040   53     190/  6/  8 1011.9S
ATWATER BUOY     2309   49     180/  6/  6 1011.3F
MILWAUKEE LAKESH 0030   52     170/  3/  4   N/A
S MID LAKE BUOY  2350   51 45  180/ 10/ 12 1012.1F   1/ 3
KENOSHA   LAKESH 0000   69     230/ 14/ 24 1011.2
$$

TC  - TEMPERATURE IN CELSIUS
VSB - VISIBILITY IN STATUTE MILES
WCI - WIND CHILL INDEX
HX  - HEAT INDEX





USA.gov is the U.S. government's official web portal to all federal, state and local government web resources and services.